This is the latest recevied weather packets stored in our database for station/object N0NB. If no packets are shown the sender has not sent any weather packets the latest 10 day(s).
| Time | Temp. | Humidity | Pressure | Rain* | Wind** | Luminosity | Snow |
|---|---|---|---|---|---|---|---|
| 1777524316 | 8.33° C | 78% | 1017.5 hPa | 0 mm | - | 0 W/m² | - |
| 1777523716 | 7.78° C | 78% | 1017.6 hPa | 0 mm | - | 0 W/m² | - |
| 1777523116 | 7.78° C | 79% | 1017.7 hPa | 0 mm | - | 0 W/m² | - |
| 1777522516 | 7.78° C | 79% | 1017.7 hPa | 0 mm | - | 0 W/m² | - |
| 1777521916 | 8.33° C | 79% | 1017.7 hPa | 0 mm | - | 0 W/m² | - |
| 1777521316 | 7.78° C | 80% | 1017.6 hPa | 0 mm | - | 0 W/m² | - |
| 1777520716 | 7.78° C | 81% | 1017.6 hPa | 0 mm | - | 0 W/m² | - |
| 1777520116 | 7.78° C | 79% | 1017.7 hPa | 0 mm | - | 0 W/m² | - |
| 1777519516 | 7.78° C | 79% | 1017.7 hPa | 0 mm | - | 0 W/m² | - |
| 1777518916 | 8.33° C | 78% | 1017.6 hPa | 0 mm | - | 0 W/m² | - |
| 1777518316 | 8.33° C | 78% | 1017.3 hPa | 0 mm | - | 0 W/m² | - |
| 1777517716 | 8.89° C | 75% | 1017.3 hPa | 0 mm | - | 0 W/m² | - |
| 1777517116 | 9.44° C | 74% | 1017.2 hPa | 0 mm | - | 0 W/m² | - |
| 1777516516 | 9.44° C | 74% | 1017 hPa | 0 mm | - | 0 W/m² | - |
| 1777515916 | 10° C | 71% | 1017 hPa | 0 mm | - | 0 W/m² | - |
| 1777515316 | 10.56° C | 69% | 1017 hPa | 0 mm | - | 0 W/m² | - |
| 1777514716 | 11.11° C | 66% | 1016.9 hPa | 0 mm | - | 0 W/m² | - |
| 1777514116 | 11.67° C | 64% | 1016.8 hPa | 0 mm | - | 0 W/m² | - |
| 1777513516 | 12.22° C | 61% | 1016.7 hPa | 0 mm | - | 0 W/m² | - |
| 1777512916 | 13.33° C | 59% | 1016.6 hPa | 0 mm | - | 0 W/m² | - |
| 1777512316 | 14.44° C | 55% | 1016.7 hPa | 0 mm | - | 0 W/m² | - |
| 1777511716 | 15° C | 52% | 1016.8 hPa | 0 mm | - | 7 W/m² | - |
| 1777511116 | 15.56° C | 48% | 1016.6 hPa | 0 mm | - | 13 W/m² | - |
| 1777510516 | 16.67° C | 46% | 1016.7 hPa | 0 mm | - | 24 W/m² | - |
| 1777509916 | 17.22° C | 42% | 1016.8 hPa | 0 mm | - | 43 W/m² | - |
* Rain latest hour (hover to see other rain measurements)
** Current wind speed in m/s (hover to see current wind gust speed)